Time,TemperatureF,DewpointF,PressureIn,WindDirection,WindDirectionDegrees,WindSpeedMPH,WindSpeedGustMPH,Humidity,HourlyPrecipIn,Conditions,Clouds,dailyrainin,SoftwareType,DateUTC
2013-02-14 00:05:00,33.5,29.5,29.71,West,269,2.0,3.0,85,0.00,,,0.00,Wunderground v.1.15,2013-02-14 06:05:00,
2013-02-14 00:10:00,33.7,29.7,29.71,West,269,2.0,2.0,85,0.00,,,0.00,Wunderground v.1.15,2013-02-14 06:10:00,
2013-02-14 00:15:00,33.7,29.4,29.71,West,261,2.0,2.0,84,0.00,,,0.00,Wunderground v.1.15,2013-02-14 06:15:00,
2013-02-14 00:20:00,33.8,29.5,29.71,West,261,2.0,2.0,84,0.00,,,0.00,Wunderground v.1.15,2013-02-14 06:20:00,
2013-02-14 00:25:00,34.0,29.7,29.71,West,261,2.0,2.0,84,0.00,,,0.00,Wunderground v.1.15,2013-02-14 06:25:00,
2013-02-14 00:30:00,33.8,29.5,29.71,West,261,2.0,2.0,84,0.00,,,0.00,Wunderground v.1.15,2013-02-14 06:30:00,
2013-02-14 00:35:00,34.0,29.7,29.71,West,261,2.0,2.0,84,0.00,,,0.00,Wunderground v.1.15,2013-02-14 06:35:00,
2013-02-14 00:40:00,34.3,30.0,29.71,West,261,1.0,1.0,84,0.00,,,0.00,Wunderground v.1.15,2013-02-14 06:40:00,
2013-02-14 00:45:00,35.0,30.4,29.71,West,262,2.0,2.0,83,0.00,,,0.00,Wunderground v.1.15,2013-02-14 06:45:00,
2013-02-14 00:50:00,35.8,30.5,29.71,West,260,3.0,6.0,81,0.00,,,0.00,Wunderground v.1.15,2013-02-14 06:50:00,
2013-02-14 00:54:00,36.5,30.6,29.71,WSW,251,4.0,6.0,79,0.00,,,0.00,Wunderground v.1.15,2013-02-14 06:54:00,
2013-02-14 00:59:00,36.8,30.3,29.71,WSW,248,5.0,6.0,77,0.00,,,0.00,Wunderground v.1.15,2013-02-14 06:59:00,
2013-02-14 01:05:00,36.9,30.4,29.71,WSW,250,5.0,6.0,77,0.00,,,0.00,Wunderground v.1.15,2013-02-14 07:05:00,
2013-02-14 01:10:00,36.9,30.0,29.71,WSW,242,5.0,5.0,76,0.00,,,0.00,Wunderground v.1.15,2013-02-14 07:10:00,
2013-02-14 01:15:00,36.8,29.9,29.71,WSW,243,4.0,5.0,76,0.00,,,0.00,Wunderground v.1.15,2013-02-14 07:15:00,
2013-02-14 01:20:00,36.6,30.1,29.71,WSW,243,3.0,3.0,77,0.00,,,0.00,Wunderground v.1.15,2013-02-14 07:20:00,
2013-02-14 01:25:00,36.5,30.0,29.71,WSW,243,2.0,3.0,77,0.00,,,0.00,Wunderground v.1.15,2013-02-14 07:25:00,
2013-02-14 01:30:00,36.3,29.8,29.70,WSW,243,2.0,3.0,77,0.00,,,0.00,Wunderground v.1.15,2013-02-14 07:30:00,
2013-02-14 01:35:00,35.5,29.0,29.70,WSW,241,2.0,3.0,77,0.00,,,0.00,Wunderground v.1.15,2013-02-14 07:35:00,
2013-02-14 01:40:00,34.7,28.5,29.70,WSW,241,2.0,3.0,78,0.00,,,0.00,Wunderground v.1.15,2013-02-14 07:40:00,
2013-02-14 01:45:00,34.3,28.5,29.70,WSW,241,2.0,3.0,79,0.00,,,0.00,Wunderground v.1.15,2013-02-14 07:45:00,
2013-02-14 01:55:00,33.7,28.5,29.70,WSW,241,2.0,2.0,81,0.00,,,0.00,Wunderground v.1.15,2013-02-14 07:55:00,
2013-02-14 02:00:00,33.5,28.6,29.70,WSW,238,2.0,3.0,82,0.00,,,0.00,Wunderground v.1.15,2013-02-14 08:00:00,
2013-02-14 02:10:00,33.4,28.5,29.70,SW,224,3.0,3.0,82,0.00,,,0.00,Wunderground v.1.15,2013-02-14 08:10:00,
2013-02-14 02:15:00,33.4,28.5,29.70,SW,219,2.0,3.0,82,0.00,,,0.00,Wunderground v.1.15,2013-02-14 08:15:00,
2013-02-14 02:20:00,33.4,28.8,29.70,SW,219,2.0,2.0,83,0.00,,,0.00,Wunderground v.1.15,2013-02-14 08:20:00,
2013-02-14 02:25:00,33.4,28.8,29.70,SW,219,1.0,2.0,83,0.00,,,0.00,Wunderground v.1.15,2013-02-14 08:25:00,
2013-02-14 02:30:00,33.4,28.8,29.69,SW,219,1.0,3.0,83,0.00,,,0.00,Wunderground v.1.15,2013-02-14 08:30:00,
2013-02-14 02:35:00,33.4,28.8,29.69,SW,217,2.0,3.0,83,0.00,,,0.00,Wunderground v.1.15,2013-02-14 08:35:00,
2013-02-14 02:40:00,33.4,28.8,29.69,SW,215,2.0,2.0,83,0.00,,,0.00,Wunderground v.1.15,2013-02-14 08:40:00,
2013-02-14 02:45:00,33.4,29.1,29.69,SSW,213,2.0,2.0,84,0.00,,,0.00,Wunderground v.1.15,2013-02-14 08:45:00,
2013-02-14 02:50:00,33.5,29.2,29.69,SSW,213,2.0,2.0,84,0.00,,,0.00,Wunderground v.1.15,2013-02-14 08:50:00,
2013-02-14 02:55:00,33.5,29.2,29.69,SSW,211,2.0,2.0,84,0.00,,,0.00,Wunderground v.1.15,2013-02-14 08:55:00,
2013-02-14 03:00:00,33.7,29.4,29.69,SSW,211,3.0,3.0,84,0.00,,,0.00,Wunderground v.1.15,2013-02-14 09:00:00,
2013-02-14 03:10:00,34.0,29.7,29.69,SSW,202,4.0,4.0,84,0.00,,,0.00,Wunderground v.1.15,2013-02-14 09:10:00,
2013-02-14 03:15:00,34.0,29.7,29.69,SSW,200,4.0,4.0,84,0.00,,,0.00,Wunderground v.1.15,2013-02-14 09:15:00,
2013-02-14 03:20:00,34.1,29.8,29.69,South,185,4.0,4.0,84,0.00,,,0.00,Wunderground v.1.15,2013-02-14 09:20:00,
2013-02-14 03:25:00,34.1,29.8,29.69,South,185,3.0,4.0,84,0.00,,,0.00,Wunderground v.1.15,2013-02-14 09:25:00,
2013-02-14 03:30:00,34.3,30.0,29.68,South,188,2.0,5.0,84,0.00,,,0.00,Wunderground v.1.15,2013-02-14 09:30:00,
2013-02-14 03:35:00,34.3,30.0,29.68,South,191,3.0,5.0,84,0.00,,,0.00,Wunderground v.1.15,2013-02-14 09:35:00,
2013-02-14 03:45:00,34.4,30.1,29.68,SSW,197,3.0,3.0,84,0.00,,,0.00,Wunderground v.1.15,2013-02-14 09:45:00,
2013-02-14 03:50:00,34.4,30.1,29.68,SSW,198,3.0,3.0,84,0.00,,,0.00,Wunderground v.1.15,2013-02-14 09:50:00,
2013-02-14 03:55:00,34.6,30.3,29.68,SSW,198,2.0,3.0,84,0.00,,,0.00,Wunderground v.1.15,2013-02-14 09:55:00,
2013-02-14 04:00:00,34.6,30.3,29.68,South,181,2.0,3.0,84,0.00,,,0.00,Wunderground v.1.15,2013-02-14 10:00:00,
2013-02-14 04:10:00,34.7,30.4,29.68,South,183,4.0,9.0,84,0.00,,,0.00,Wunderground v.1.15,2013-02-14 10:10:00,
2013-02-14 04:15:00,34.7,30.4,29.67,South,185,4.0,9.0,84,0.00,,,0.00,Wunderground v.1.15,2013-02-14 10:15:00,
2013-02-14 04:20:00,34.7,30.4,29.67,South,191,4.0,4.0,84,0.00,,,0.00,Wunderground v.1.15,2013-02-14 10:20:00,
2013-02-14 04:25:00,34.7,30.4,29.67,South,175,4.0,10.0,84,0.00,,,0.00,Wunderground v.1.15,2013-02-14 10:25:00,
2013-02-14 04:30:00,34.7,30.4,29.66,South,191,5.0,5.0,84,0.00,,,0.00,Wunderground v.1.15,2013-02-14 10:30:00,
2013-02-14 04:35:00,34.7,30.4,29.66,South,183,5.0,5.0,84,0.00,,,0.00,Wunderground v.1.15,2013-02-14 10:35:00,
2013-02-14 04:40:00,34.7,30.4,29.66,South,184,5.0,5.0,84,0.00,,,0.00,Wunderground v.1.15,2013-02-14 10:40:00,
2013-02-14 04:45:00,34.7,30.4,29.66,South,182,4.0,5.0,84,0.00,,,0.00,Wunderground v.1.15,2013-02-14 10:45:00,
2013-02-14 04:50:00,34.7,30.1,29.66,South,184,3.0,4.0,83,0.00,,,0.00,Wunderground v.1.15,2013-02-14 10:50:00,
2013-02-14 04:55:00,34.7,30.1,29.66,South,190,4.0,6.0,83,0.00,,,0.00,Wunderground v.1.15,2013-02-14 10:55:00,
2013-02-14 04:59:00,34.9,30.3,29.66,SSW,196,5.0,5.0,83,0.00,,,0.00,Wunderground v.1.15,2013-02-14 10:59:00,
2013-02-14 05:05:00,34.9,30.3,29.65,South,184,5.0,5.0,83,0.00,,,0.00,Wunderground v.1.15,2013-02-14 11:05:00,
2013-02-14 05:10:00,35.0,30.4,29.65,SSW,193,4.0,4.0,83,0.00,,,0.00,Wunderground v.1.15,2013-02-14 11:10:00,
2013-02-14 05:15:00,35.2,30.3,29.65,South,188,5.0,5.0,82,0.00,,,0.00,Wunderground v.1.15,2013-02-14 11:15:00,
2013-02-14 05:20:00,35.3,30.4,29.65,SSW,202,5.0,5.0,82,0.00,,,0.00,Wunderground v.1.15,2013-02-14 11:20:00,
2013-02-14 05:25:00,35.3,30.4,29.65,SSW,193,5.0,10.0,82,0.00,,,0.00,Wunderground v.1.15,2013-02-14 11:25:00,
2013-02-14 05:30:00,35.5,30.5,29.65,SW,219,4.0,14.0,82,0.00,,,0.00,Wunderground v.1.15,2013-02-14 11:30:00,
2013-02-14 05:35:00,35.6,30.3,29.65,SSW,196,5.0,14.0,81,0.00,,,0.00,Wunderground v.1.15,2013-02-14 11:35:00,
2013-02-14 05:40:00,35.8,30.5,29.65,South,186,5.0,5.0,81,0.00,,,0.00,Wunderground v.1.15,2013-02-14 11:40:00,
2013-02-14 05:45:00,35.9,30.3,29.64,SSW,198,6.0,9.0,80,0.00,,,0.00,Wunderground v.1.15,2013-02-14 11:45:00,
2013-02-14 05:50:00,36.0,30.1,29.64,SSW,201,6.0,6.0,79,0.00,,,0.00,Wunderground v.1.15,2013-02-14 11:50:00,
2013-02-14 05:55:00,36.2,30.3,29.64,South,171,5.0,6.0,79,0.00,,,0.00,Wunderground v.1.15,2013-02-14 11:55:00,
2013-02-14 05:59:00,36.3,30.4,29.64,SSW,192,5.0,5.0,79,0.00,,,0.00,Wunderground v.1.15,2013-02-14 11:59:00,
2013-02-14 06:05:00,36.5,30.3,29.64,SSW,207,6.0,9.0,78,0.00,,,0.00,Wunderground v.1.15,2013-02-14 12:05:00,
2013-02-14 06:10:00,36.6,30.4,29.64,South,177,6.0,6.0,78,0.00,,,0.00,Wunderground v.1.15,2013-02-14 12:10:00,
2013-02-14 06:15:00,36.6,30.1,29.63,South,188,6.0,6.0,77,0.00,,,0.00,Wunderground v.1.15,2013-02-14 12:15:00,
2013-02-14 06:20:00,36.6,30.1,29.63,SSW,196,6.0,10.0,77,0.00,,,0.00,Wunderground v.1.15,2013-02-14 12:20:00,
2013-02-14 06:25:00,36.6,30.1,29.63,SSW,211,6.0,10.0,77,0.00,,,0.00,Wunderground v.1.15,2013-02-14 12:25:00,
2013-02-14 06:29:00,36.6,30.1,29.63,SSW,194,5.0,10.0,77,0.00,,,0.00,Wunderground v.1.15,2013-02-14 12:29:00,
2013-02-14 06:34:00,36.6,30.1,29.63,SSW,203,6.0,10.0,77,0.00,,,0.00,Wunderground v.1.15,2013-02-14 12:34:00,
2013-02-14 06:39:00,36.8,30.3,29.63,SSW,197,6.0,10.0,77,0.00,,,0.00,Wunderground v.1.15,2013-02-14 12:39:00,
2013-02-14 06:44:00,36.8,29.9,29.63,SSW,192,6.0,10.0,76,0.00,,,0.00,Wunderground v.1.15,2013-02-14 12:44:00,
2013-02-14 06:49:00,36.9,30.0,29.62,SW,215,7.0,9.0,76,0.00,,,0.00,Wunderground v.1.15,2013-02-14 12:49:00,
2013-02-14 06:55:00,36.9,30.0,29.62,South,185,7.0,9.0,76,0.00,,,0.00,Wunderground v.1.15,2013-02-14 12:55:00,
2013-02-14 07:00:00,36.8,29.9,29.62,South,177,6.0,10.0,76,0.00,,,0.00,Wunderground v.1.15,2013-02-14 13:00:00,
2013-02-14 07:05:00,36.8,29.9,29.62,SSW,192,5.0,10.0,76,0.00,,,0.00,Wunderground v.1.15,2013-02-14 13:05:00,
2013-02-14 07:10:00,36.9,30.0,29.62,South,190,6.0,6.0,76,0.00,,,0.00,Wunderground v.1.15,2013-02-14 13:10:00,
2013-02-14 07:15:00,36.9,30.0,29.62,South,190,6.0,6.0,76,0.00,,,0.00,Wunderground v.1.15,2013-02-14 13:15:00,
2013-02-14 07:20:00,36.9,30.0,29.62,SSW,199,5.0,5.0,76,0.00,,,0.00,Wunderground v.1.15,2013-02-14 13:20:00,
2013-02-14 07:30:00,36.9,30.0,29.62,SSW,195,5.0,6.0,76,0.00,,,0.00,Wunderground v.1.15,2013-02-14 13:30:00,
2013-02-14 07:35:00,37.3,30.4,29.62,SSW,207,6.0,6.0,76,0.00,,,0.00,Wunderground v.1.15,2013-02-14 13:35:00,
2013-02-14 07:40:00,37.5,30.3,29.62,South,186,6.0,6.0,75,0.00,,,0.00,Wunderground v.1.15,2013-02-14 13:40:00,
2013-02-14 07:44:00,37.6,30.4,29.62,SSW,205,5.0,6.0,75,0.00,,,0.00,Wunderground v.1.15,2013-02-14 13:44:00,
2013-02-14 07:49:00,37.8,30.6,29.63,SSW,199,5.0,6.0,75,0.00,,,0.00,Wunderground v.1.15,2013-02-14 13:49:00,
2013-02-14 07:54:00,38.0,30.4,29.63,SW,229,5.0,6.0,74,0.00,,,0.00,Wunderground v.1.15,2013-02-14 13:54:00,
2013-02-14 07:59:00,38.0,30.4,29.63,WSW,244,5.0,9.0,74,0.00,,,0.00,Wunderground v.1.15,2013-02-14 13:59:00,
2013-02-14 08:05:00,38.0,30.4,29.63,SW,232,6.0,9.0,74,0.00,,,0.00,Wunderground v.1.15,2013-02-14 14:05:00,
2013-02-14 08:10:00,38.0,30.4,29.63,SSW,203,6.0,6.0,74,0.00,,,0.00,Wunderground v.1.15,2013-02-14 14:10:00,
2013-02-14 08:15:00,38.3,30.7,29.63,SSW,209,5.0,6.0,74,0.00,,,0.00,Wunderground v.1.15,2013-02-14 14:15:00,
2013-02-14 08:20:00,38.6,31.0,29.63,SSW,208,5.0,5.0,74,0.00,,,0.00,Wunderground v.1.15,2013-02-14 14:20:00,
2013-02-14 08:25:00,38.9,31.0,29.63,WSW,239,5.0,6.0,73,0.00,,,0.00,Wunderground v.1.15,2013-02-14 14:25:00,
2013-02-14 08:30:00,38.9,31.0,29.63,SSW,206,5.0,5.0,73,0.00,,,0.00,Wunderground v.1.15,2013-02-14 14:30:00,
2013-02-14 08:35:00,38.9,31.0,29.63,WSW,240,5.0,5.0,73,0.00,,,0.00,Wunderground v.1.15,2013-02-14 14:35:00,
2013-02-14 08:40:00,38.9,31.0,29.63,SW,223,6.0,12.0,73,0.00,,,0.00,Wunderground v.1.15,2013-02-14 14:40:00,
2013-02-14 08:45:00,39.1,31.2,29.63,WSW,248,7.0,12.0,73,0.00,,,0.00,Wunderground v.1.15,2013-02-14 14:45:00,
2013-02-14 08:50:00,39.1,31.2,29.63,WSW,240,6.0,6.0,73,0.00,,,0.00,Wunderground v.1.15,2013-02-14 14:50:00,
2013-02-14 08:55:00,39.3,31.0,29.63,West,264,7.0,7.0,72,0.00,,,0.00,Wunderground v.1.15,2013-02-14 14:55:00,
2013-02-14 08:59:00,39.6,31.3,29.63,WSW,242,8.0,8.0,72,0.00,,,0.00,Wunderground v.1.15,2013-02-14 14:59:00,
2013-02-14 09:05:00,39.8,31.2,29.63,WSW,238,8.0,8.0,71,0.00,,,0.00,Wunderground v.1.15,2013-02-14 15:05:00,
2013-02-14 09:10:00,39.8,31.2,29.63,SW,222,10.0,10.0,71,0.00,,,0.00,Wunderground v.1.15,2013-02-14 15:10:00,
2013-02-14 09:15:00,40.1,31.4,29.63,WSW,250,10.0,10.0,71,0.00,,,0.00,Wunderground v.1.15,2013-02-14 15:15:00,
2013-02-14 09:20:00,40.1,31.4,29.63,WSW,243,9.0,9.0,71,0.00,,,0.00,Wunderground v.1.15,2013-02-14 15:20:00,
2013-02-14 09:25:00,40.1,31.4,29.63,WSW,256,10.0,11.0,71,0.00,,,0.00,Wunderground v.1.15,2013-02-14 15:25:00,
2013-02-14 09:30:00,39.8,31.2,29.63,WSW,254,11.0,11.0,71,0.00,,,0.00,Wunderground v.1.15,2013-02-14 15:30:00,
2013-02-14 09:35:00,39.6,31.3,29.63,West,268,11.0,11.0,72,0.00,,,0.00,Wunderground v.1.15,2013-02-14 15:35:00,
2013-02-14 09:40:00,39.6,31.3,29.63,WSW,247,10.0,11.0,72,0.00,,,0.00,Wunderground v.1.15,2013-02-14 15:40:00,
2013-02-14 09:45:00,39.6,31.3,29.64,WSW,246,9.0,11.0,72,0.00,,,0.00,Wunderground v.1.15,2013-02-14 15:45:00,
2013-02-14 09:49:00,39.6,31.3,29.64,WSW,238,8.0,12.0,72,0.00,,,0.00,Wunderground v.1.15,2013-02-14 15:49:00,
2013-02-14 09:54:00,39.5,31.2,29.64,West,269,9.0,12.0,72,0.00,,,0.00,Wunderground v.1.15,2013-02-14 15:54:00,
2013-02-14 09:59:00,39.3,31.4,29.64,WSW,252,13.0,14.0,73,0.00,,,0.00,Wunderground v.1.15,2013-02-14 15:59:00,
2013-02-14 10:05:00,39.5,31.6,29.63,West,263,13.0,14.0,73,0.00,,,0.00,Wunderground v.1.15,2013-02-14 16:05:00,
2013-02-14 10:10:00,39.5,31.6,29.63,West,262,12.0,12.0,73,0.00,,,0.00,Wunderground v.1.15,2013-02-14 16:10:00,
2013-02-14 10:15:00,39.5,31.2,29.64,WSW,247,12.0,18.0,72,0.00,,,0.00,Wunderground v.1.15,2013-02-14 16:15:00,
2013-02-14 10:20:00,39.3,31.4,29.64,West,267,12.0,13.0,73,0.00,,,0.00,Wunderground v.1.15,2013-02-14 16:20:00,
2013-02-14 10:25:00,39.2,31.3,29.64,WSW,254,13.0,13.0,73,0.00,,,0.00,Wunderground v.1.15,2013-02-14 16:25:00,
2013-02-14 10:30:00,39.2,31.3,29.64,West,271,12.0,12.0,73,0.00,,,0.00,Wunderground v.1.15,2013-02-14 16:30:00,
2013-02-14 10:35:00,39.6,31.7,29.64,West,278,12.0,12.0,73,0.00,,,0.00,Wunderground v.1.15,2013-02-14 16:35:00,
2013-02-14 10:40:00,39.9,31.6,29.64,SW,236,11.0,11.0,72,0.00,,,0.00,Wunderground v.1.15,2013-02-14 16:40:00,
2013-02-14 10:45:00,39.8,31.5,29.64,WNW,294,11.0,12.0,72,0.00,,,0.00,Wunderground v.1.15,2013-02-14 16:45:00,
2013-02-14 10:50:00,39.8,31.2,29.64,WSW,238,12.0,12.0,71,0.00,,,0.00,Wunderground v.1.15,2013-02-14 16:50:00,
2013-02-14 10:55:00,39.9,31.6,29.64,WSW,252,12.0,12.0,72,0.00,,,0.00,Wunderground v.1.15,2013-02-14 16:55:00,
2013-02-14 11:00:00,40.1,31.4,29.64,WSW,242,11.0,17.0,71,0.00,,,0.00,Wunderground v.1.15,2013-02-14 17:00:00,
2013-02-14 11:10:00,39.5,31.2,29.64,West,259,12.0,12.0,72,0.00,,,0.00,Wunderground v.1.15,2013-02-14 17:10:00,
2013-02-14 11:15:00,38.9,31.0,29.64,WSW,248,12.0,14.0,73,0.00,,,0.00,Wunderground v.1.15,2013-02-14 17:15:00,
2013-02-14 11:20:00,38.5,31.3,29.64,West,265,12.0,12.0,75,0.00,,,0.00,Wunderground v.1.15,2013-02-14 17:20:00,
2013-02-14 11:25:00,38.2,31.3,29.64,West,265,10.0,12.0,76,0.00,,,0.00,Wunderground v.1.15,2013-02-14 17:25:00,
2013-02-14 11:30:00,38.0,31.4,29.65,West,267,10.0,13.0,77,0.00,,,0.00,Wunderground v.1.15,2013-02-14 17:30:00,
2013-02-14 11:35:00,38.0,31.7,29.65,WSW,251,10.0,13.0,78,0.00,,,0.00,Wunderground v.1.15,2013-02-14 17:35:00,
2013-02-14 11:40:00,38.0,31.7,29.65,WSW,250,10.0,10.0,78,0.00,,,0.00,Wunderground v.1.15,2013-02-14 17:40:00,
2013-02-14 11:44:00,38.0,31.7,29.65,WNW,282,9.0,12.0,78,0.00,,,0.00,Wunderground v.1.15,2013-02-14 17:44:00,
2013-02-14 11:49:00,38.2,31.9,29.65,West,259,9.0,9.0,78,0.00,,,0.00,Wunderground v.1.15,2013-02-14 17:49:00,
2013-02-14 11:54:00,38.2,31.6,29.65,West,267,10.0,10.0,77,0.00,,,0.00,Wunderground v.1.15,2013-02-14 17:54:00,
2013-02-14 11:59:00,38.2,31.6,29.65,West,271,10.0,11.0,77,0.00,,,0.00,Wunderground v.1.15,2013-02-14 17:59:00,
2013-02-14 12:05:00,38.0,31.1,29.65,West,266,10.0,11.0,76,0.00,,,0.00,Wunderground v.1.15,2013-02-14 18:05:00,
2013-02-14 12:10:00,38.0,31.1,29.65,WNW,289,11.0,17.0,76,0.00,,,0.00,Wunderground v.1.15,2013-02-14 18:10:00,
2013-02-14 12:15:00,37.9,31.0,29.65,WNW,286,12.0,17.0,76,0.00,,,0.00,Wunderground v.1.15,2013-02-14 18:15:00,
2013-02-14 12:20:00,37.8,30.9,29.65,West,275,13.0,14.0,76,0.00,,,0.00,Wunderground v.1.15,2013-02-14 18:20:00,
2013-02-14 12:25:00,37.6,31.0,29.65,West,259,12.0,14.0,77,0.00,,,0.00,Wunderground v.1.15,2013-02-14 18:25:00,
2013-02-14 12:29:00,37.5,30.9,29.65,West,267,12.0,12.0,77,0.00,,,0.00,Wunderground v.1.15,2013-02-14 18:29:00,
2013-02-14 12:35:00,37.2,31.0,29.66,WNW,286,12.0,16.0,78,0.00,,,0.00,Wunderground v.1.15,2013-02-14 18:35:00,
2013-02-14 12:40:00,37.0,31.1,29.66,WNW,285,12.0,14.0,79,0.00,,,0.00,Wunderground v.1.15,2013-02-14 18:40:00,
2013-02-14 12:45:00,37.2,31.3,29.66,West,261,11.0,14.0,79,0.00,,,0.00,Wunderground v.1.15,2013-02-14 18:45:00,
2013-02-14 12:54:00,37.3,31.1,29.66,WNW,285,10.0,11.0,78,0.00,,,0.00,Wunderground v.1.15,2013-02-14 18:54:00,
2013-02-14 12:59:00,37.6,31.0,29.66,West,265,10.0,10.0,77,0.00,,,0.00,Wunderground v.1.15,2013-02-14 18:59:00,
2013-02-14 13:05:00,38.0,31.4,29.66,WSW,254,10.0,15.0,77,0.00,,,0.00,Wunderground v.1.15,2013-02-14 19:05:00,
2013-02-14 13:10:00,38.2,31.3,29.66,WNW,298,10.0,10.0,76,0.00,,,0.00,Wunderground v.1.15,2013-02-14 19:10:00,
2013-02-14 13:15:00,37.9,30.7,29.66,West,263,10.0,10.0,75,0.00,,,0.00,Wunderground v.1.15,2013-02-14 19:15:00,
2013-02-14 13:20:00,37.8,30.6,29.66,West,262,10.0,11.0,75,0.00,,,0.00,Wunderground v.1.15,2013-02-14 19:20:00,
2013-02-14 13:25:00,37.6,30.4,29.66,WSW,257,10.0,11.0,75,0.00,,,0.00,Wunderground v.1.15,2013-02-14 19:25:00,
2013-02-14 13:30:00,37.6,30.7,29.66,West,265,10.0,10.0,76,0.00,,,0.00,Wunderground v.1.15,2013-02-14 19:30:00,
2013-02-14 13:35:00,37.5,30.6,29.66,West,263,9.0,12.0,76,0.00,,,0.00,Wunderground v.1.15,2013-02-14 19:35:00,
2013-02-14 13:40:00,37.5,30.6,29.66,West,267,9.0,9.0,76,0.00,,,0.00,Wunderground v.1.15,2013-02-14 19:40:00,
2013-02-14 13:44:00,37.5,30.6,29.66,WNW,282,10.0,10.0,76,0.00,,,0.00,Wunderground v.1.15,2013-02-14 19:44:00,
2013-02-14 13:49:00,37.5,30.3,29.67,West,277,11.0,12.0,75,0.00,,,0.00,Wunderground v.1.15,2013-02-14 19:49:00,
2013-02-14 13:54:00,37.5,30.3,29.67,West,273,11.0,12.0,75,0.00,,,0.00,Wunderground v.1.15,2013-02-14 19:54:00,
2013-02-14 14:00:00,37.6,30.4,29.67,SW,235,10.0,10.0,75,0.00,,,0.00,Wunderground v.1.15,2013-02-14 20:00:00,
2013-02-14 14:05:00,37.6,30.4,29.67,WSW,250,10.0,13.0,75,0.00,,,0.00,Wunderground v.1.15,2013-02-14 20:05:00,
2013-02-14 14:10:00,37.8,30.9,29.67,West,275,10.0,10.0,76,0.00,,,0.00,Wunderground v.1.15,2013-02-14 20:10:00,
2013-02-14 14:15:00,37.8,30.9,29.68,West,279,10.0,16.0,76,0.00,,,0.00,Wunderground v.1.15,2013-02-14 20:15:00,
2013-02-14 14:20:00,37.8,31.2,29.68,West,265,9.0,11.0,77,0.00,,,0.00,Wunderground v.1.15,2013-02-14 20:20:00,
2013-02-14 14:25:00,37.8,30.9,29.68,West,275,9.0,11.0,76,0.00,,,0.00,Wunderground v.1.15,2013-02-14 20:25:00,
2013-02-14 14:30:00,37.8,31.2,29.69,WSW,251,11.0,11.0,77,0.00,,,0.00,Wunderground v.1.15,2013-02-14 20:30:00,
2013-02-14 14:35:00,37.6,31.0,29.69,WNW,294,10.0,13.0,77,0.00,,,0.00,Wunderground v.1.15,2013-02-14 20:35:00,
2013-02-14 14:40:00,37.6,31.0,29.69,West,279,8.0,17.0,77,0.00,,,0.00,Wunderground v.1.15,2013-02-14 20:40:00,
2013-02-14 14:45:00,37.6,31.0,29.69,West,272,8.0,17.0,77,0.00,,,0.00,Wunderground v.1.15,2013-02-14 20:45:00,
2013-02-14 14:49:00,37.6,31.0,29.69,West,263,9.0,10.0,77,0.00,,,0.00,Wunderground v.1.15,2013-02-14 20:49:00,
2013-02-14 14:54:00,37.6,31.0,29.69,West,274,10.0,10.0,77,0.00,,,0.00,Wunderground v.1.15,2013-02-14 20:54:00,
2013-02-14 14:59:00,37.5,31.3,29.69,West,268,10.0,10.0,78,0.00,,,0.00,Wunderground v.1.15,2013-02-14 20:59:00,
2013-02-14 15:05:00,37.5,31.3,29.70,West,267,9.0,10.0,78,0.00,,,0.00,Wunderground v.1.15,2013-02-14 21:05:00,
2013-02-14 15:10:00,37.5,31.3,29.70,West,277,8.0,9.0,78,0.00,,,0.00,Wunderground v.1.15,2013-02-14 21:10:00,
2013-02-14 15:15:00,37.6,31.0,29.71,WNW,285,7.0,9.0,77,0.00,,,0.00,Wunderground v.1.15,2013-02-14 21:15:00,
2013-02-14 15:20:00,37.5,30.9,29.71,NW,323,8.0,11.0,77,0.00,,,0.00,Wunderground v.1.15,2013-02-14 21:20:00,
2013-02-14 15:25:00,37.2,30.7,29.71,WNW,290,9.0,17.0,77,0.00,,,0.00,Wunderground v.1.15,2013-02-14 21:25:00,
2013-02-14 15:30:00,36.9,30.4,29.73,NW,306,9.0,27.0,77,0.00,,,0.00,Wunderground v.1.15,2013-02-14 21:30:00,
2013-02-14 15:39:00,36.8,29.9,29.73,NNW,327,11.0,11.0,76,0.00,,,0.00,Wunderground v.1.15,2013-02-14 21:39:00,
2013-02-14 15:44:00,36.9,30.0,29.73,WNW,284,11.0,11.0,76,0.00,,,0.00,Wunderground v.1.15,2013-02-14 21:44:00,
2013-02-14 15:49:00,36.8,30.3,29.75,WNW,292,10.0,10.0,77,0.00,,,0.00,Wunderground v.1.15,2013-02-14 21:49:00,
2013-02-14 15:54:00,36.6,29.4,29.75,NNW,331,10.0,10.0,75,0.00,,,0.00,Wunderground v.1.15,2013-02-14 21:54:00,
2013-02-14 15:59:00,36.5,29.3,29.75,WNW,297,11.0,11.0,75,0.00,,,0.00,Wunderground v.1.15,2013-02-14 21:59:00,
2013-02-14 16:05:00,36.3,28.5,29.76,WNW,290,11.0,11.0,73,0.00,,,0.00,Wunderground v.1.15,2013-02-14 22:05:00,
2013-02-14 16:10:00,36.5,28.0,29.76,NNW,329,13.0,13.0,71,0.00,,,0.00,Wunderground v.1.15,2013-02-14 22:10:00,
2013-02-14 16:15:00,36.5,28.0,29.77,NNW,329,12.0,13.0,71,0.00,,,0.00,Wunderground v.1.15,2013-02-14 22:15:00,
2013-02-14 16:20:00,36.5,28.7,29.77,WNW,303,11.0,11.0,73,0.00,,,0.00,Wunderground v.1.15,2013-02-14 22:20:00,
2013-02-14 16:25:00,36.5,28.7,29.77,WNW,284,11.0,11.0,73,0.00,,,0.00,Wunderground v.1.15,2013-02-14 22:25:00,
2013-02-14 16:30:00,36.5,27.6,29.78,NW,310,11.0,12.0,70,0.00,,,0.00,Wunderground v.1.15,2013-02-14 22:30:00,
2013-02-14 16:34:00,36.5,27.3,29.78,WNW,287,12.0,12.0,69,0.00,,,0.00,Wunderground v.1.15,2013-02-14 22:34:00,
2013-02-14 16:39:00,36.5,26.9,29.78,NNW,334,13.0,13.0,68,0.00,,,0.00,Wunderground v.1.15,2013-02-14 22:39:00,
2013-02-14 16:44:00,36.5,27.3,29.78,NW,317,12.0,13.0,69,0.00,,,0.00,Wunderground v.1.15,2013-02-14 22:44:00,
2013-02-14 16:49:00,36.3,26.7,29.79,NNW,327,12.0,15.0,68,0.00,,,0.00,Wunderground v.1.15,2013-02-14 22:49:00,
2013-02-14 16:54:00,36.5,26.6,29.79,NW,325,13.0,15.0,67,0.00,,,0.00,Wunderground v.1.15,2013-02-14 22:54:00,
2013-02-14 16:59:00,36.5,26.9,29.79,NNW,340,14.0,14.0,68,0.00,,,0.00,Wunderground v.1.15,2013-02-14 22:59:00,
2013-02-14 17:05:00,36.3,27.4,29.80,NW,323,13.0,14.0,70,0.00,,,0.00,Wunderground v.1.15,2013-02-14 23:05:00,
2013-02-14 17:10:00,36.3,27.4,29.80,NNW,332,13.0,13.0,70,0.00,,,0.00,Wunderground v.1.15,2013-02-14 23:10:00,
2013-02-14 17:15:00,36.3,27.8,29.81,NNW,331,12.0,13.0,71,0.00,,,0.00,Wunderground v.1.15,2013-02-14 23:15:00,
2013-02-14 17:20:00,36.2,28.0,29.81,NW,325,11.0,15.0,72,0.00,,,0.00,Wunderground v.1.15,2013-02-14 23:20:00,
2013-02-14 17:25:00,36.2,27.0,29.81,NNW,334,12.0,15.0,69,0.00,,,0.00,Wunderground v.1.15,2013-02-14 23:25:00,
2013-02-14 17:29:00,36.2,26.6,29.81,NNW,336,12.0,12.0,68,0.00,,,0.00,Wunderground v.1.15,2013-02-14 23:29:00,
2013-02-14 17:34:00,36.2,28.0,29.82,NNW,348,12.0,12.0,72,0.00,,,0.00,Wunderground v.1.15,2013-02-14 23:34:00,
2013-02-14 17:40:00,35.9,28.1,29.82,NNW,329,14.0,14.0,73,0.00,,,0.00,Wunderground v.1.15,2013-02-14 23:40:00,
2013-02-14 17:44:00,35.9,27.4,29.82,NNW,345,15.0,15.0,71,0.00,,,0.00,Wunderground v.1.15,2013-02-14 23:44:00,
2013-02-14 17:49:00,35.9,27.1,29.82,NNW,343,16.0,17.0,70,0.00,,,0.00,Wunderground v.1.15,2013-02-14 23:49:00,
2013-02-14 17:54:00,35.9,26.4,29.82,NNW,344,16.0,17.0,68,0.00,,,0.00,Wunderground v.1.15,2013-02-14 23:54:00,
2013-02-14 17:59:00,35.9,26.0,29.82,NNW,347,15.0,15.0,67,0.00,,,0.00,Wunderground v.1.15,2013-02-14 23:59:00,
2013-02-14 18:05:00,35.9,26.4,29.83,NNW,342,15.0,15.0,68,0.00,,,0.00,Wunderground v.1.15,2013-02-15 00:05:00,
2013-02-14 18:10:00,35.8,26.3,29.83,WNW,301,14.0,14.0,68,0.00,,,0.00,Wunderground v.1.15,2013-02-15 00:10:00,
2013-02-14 18:15:00,35.8,25.5,29.84,NNW,329,14.0,14.0,66,0.00,,,0.00,Wunderground v.1.15,2013-02-15 00:15:00,
2013-02-14 18:20:00,35.9,24.9,29.84,NNW,329,15.0,15.0,64,0.00,,,0.00,Wunderground v.1.15,2013-02-15 00:20:00,
2013-02-14 18:25:00,35.9,25.6,29.84,NNW,338,14.0,15.0,66,0.00,,,0.00,Wunderground v.1.15,2013-02-15 00:25:00,
2013-02-14 18:30:00,35.8,25.5,29.85,NNW,331,13.0,15.0,66,0.00,,,0.00,Wunderground v.1.15,2013-02-15 00:30:00,
2013-02-14 18:35:00,35.6,25.7,29.85,NNW,342,13.0,15.0,67,0.00,,,0.00,Wunderground v.1.15,2013-02-15 00:35:00,
2013-02-14 18:44:00,35.6,26.1,29.85,NNW,344,15.0,17.0,68,0.00,,,0.00,Wunderground v.1.15,2013-02-15 00:44:00,
2013-02-14 18:49:00,35.5,26.0,29.86,NNW,339,15.0,15.0,68,0.00,,,0.00,Wunderground v.1.15,2013-02-15 00:49:00,
2013-02-14 18:54:00,35.5,26.0,29.86,NW,310,13.0,15.0,68,0.00,,,0.00,Wunderground v.1.15,2013-02-15 00:54:00,
2013-02-14 18:59:00,35.3,25.8,29.86,NNW,348,13.0,17.0,68,0.00,,,0.00,Wunderground v.1.15,2013-02-15 00:59:00,
2013-02-14 19:05:00,35.2,25.7,29.86,NW,318,13.0,17.0,68,0.00,,,0.00,Wunderground v.1.15,2013-02-15 01:05:00,
2013-02-14 19:10:00,35.2,25.7,29.86,North,360,13.0,13.0,68,0.00,,,0.00,Wunderground v.1.15,2013-02-15 01:10:00,
2013-02-14 19:15:00,35.2,25.0,29.87,North,351,13.0,17.0,66,0.00,,,0.00,Wunderground v.1.15,2013-02-15 01:15:00,
2013-02-14 19:20:00,35.2,24.2,29.87,NNW,342,13.0,13.0,64,0.00,,,0.00,Wunderground v.1.15,2013-02-15 01:20:00,
2013-02-14 19:25:00,35.2,24.2,29.87,North,349,14.0,14.0,64,0.00,,,0.00,Wunderground v.1.15,2013-02-15 01:25:00,
2013-02-14 19:30:00,35.2,24.6,29.87,NW,325,13.0,15.0,65,0.00,,,0.00,Wunderground v.1.15,2013-02-15 01:30:00,
2013-02-14 19:35:00,35.0,25.5,29.87,North,355,12.0,15.0,68,0.00,,,0.00,Wunderground v.1.15,2013-02-15 01:35:00,
2013-02-14 19:40:00,34.9,25.4,29.87,NNW,329,12.0,12.0,68,0.00,,,0.00,Wunderground v.1.15,2013-02-15 01:40:00,
2013-02-14 19:45:00,34.9,25.4,29.87,NNW,337,13.0,13.0,68,0.00,,,0.00,Wunderground v.1.15,2013-02-15 01:45:00,
2013-02-14 19:50:00,34.7,25.2,29.87,NW,321,12.0,12.0,68,0.00,,,0.00,Wunderground v.1.15,2013-02-15 01:50:00,
2013-02-14 19:55:00,34.7,25.2,29.87,NNW,339,13.0,13.0,68,0.00,,,0.00,Wunderground v.1.15,2013-02-15 01:55:00,
2013-02-14 20:00:00,34.7,25.2,29.88,NNW,334,13.0,13.0,68,0.00,,,0.00,Wunderground v.1.15,2013-02-15 02:00:00,
2013-02-14 20:05:00,34.7,24.9,29.88,NW,315,14.0,14.0,67,0.00,,,0.00,Wunderground v.1.15,2013-02-15 02:05:00,
2013-02-14 20:10:00,34.7,25.2,29.88,NW,321,14.0,16.0,68,0.00,,,0.00,Wunderground v.1.15,2013-02-15 02:10:00,
2013-02-14 20:15:00,34.6,24.0,29.88,NW,325,13.0,16.0,65,0.00,,,0.00,Wunderground v.1.15,2013-02-15 02:15:00,
2013-02-14 20:20:00,34.7,23.8,29.88,NW,319,14.0,17.0,64,0.00,,,0.00,Wunderground v.1.15,2013-02-15 02:20:00,
2013-02-14 20:25:00,34.7,23.8,29.88,North,355,13.0,17.0,64,0.00,,,0.00,Wunderground v.1.15,2013-02-15 02:25:00,
2013-02-14 20:30:00,34.7,24.1,29.89,NNW,331,14.0,14.0,65,0.00,,,0.00,Wunderground v.1.15,2013-02-15 02:30:00,
2013-02-14 20:35:00,34.6,24.4,29.89,NW,325,13.0,15.0,66,0.00,,,0.00,Wunderground v.1.15,2013-02-15 02:35:00,
2013-02-14 20:40:00,34.6,24.0,29.89,NNW,337,13.0,15.0,65,0.00,,,0.00,Wunderground v.1.15,2013-02-15 02:40:00,
2013-02-14 20:45:00,34.6,24.0,29.89,NW,317,14.0,15.0,65,0.00,,,0.00,Wunderground v.1.15,2013-02-15 02:45:00,
2013-02-14 20:50:00,34.6,24.4,29.89,NNW,331,14.0,14.0,66,0.00,,,0.00,Wunderground v.1.15,2013-02-15 02:50:00,
2013-02-14 20:55:00,34.6,24.4,29.89,NNW,342,14.0,14.0,66,0.00,,,0.00,Wunderground v.1.15,2013-02-15 02:55:00,
2013-02-14 21:00:00,34.4,23.8,29.89,NW,304,13.0,13.0,65,0.00,,,0.00,Wunderground v.1.15,2013-02-15 03:00:00,
2013-02-14 21:05:00,34.4,23.5,29.89,NNW,332,13.0,13.0,64,0.00,,,0.00,Wunderground v.1.15,2013-02-15 03:05:00,
2013-02-14 21:10:00,34.4,23.8,29.89,NNW,340,13.0,13.0,65,0.00,,,0.00,Wunderground v.1.15,2013-02-15 03:10:00,
2013-02-14 21:15:00,34.4,23.8,29.90,NW,306,13.0,13.0,65,0.00,,,0.00,Wunderground v.1.15,2013-02-15 03:15:00,
2013-02-14 21:20:00,34.4,23.8,29.90,NNW,342,13.0,13.0,65,0.00,,,0.00,Wunderground v.1.15,2013-02-15 03:20:00,
2013-02-14 21:25:00,34.4,23.8,29.90,NW,325,12.0,13.0,65,0.00,,,0.00,Wunderground v.1.15,2013-02-15 03:25:00,
2013-02-14 21:30:00,34.4,23.5,29.90,NW,324,12.0,14.0,64,0.00,,,0.00,Wunderground v.1.15,2013-02-15 03:30:00,
2013-02-14 21:34:00,34.4,23.8,29.90,North,355,12.0,14.0,65,0.00,,,0.00,Wunderground v.1.15,2013-02-15 03:34:00,
2013-02-14 21:39:00,34.4,23.8,29.90,NNW,344,12.0,13.0,65,0.00,,,0.00,Wunderground v.1.15,2013-02-15 03:39:00,
2013-02-14 21:44:00,34.4,23.5,29.90,NNW,347,12.0,15.0,64,0.00,,,0.00,Wunderground v.1.15,2013-02-15 03:44:00,
2013-02-14 21:49:00,34.6,23.7,29.90,NNW,340,12.0,12.0,64,0.00,,,0.00,Wunderground v.1.15,2013-02-15 03:49:00,
2013-02-14 21:55:00,34.4,23.5,29.90,NNW,340,12.0,12.0,64,0.00,,,0.00,Wunderground v.1.15,2013-02-15 03:55:00,
2013-02-14 22:00:00,34.4,23.5,29.90,NNW,336,11.0,11.0,64,0.00,,,0.00,Wunderground v.1.15,2013-02-15 04:00:00,
2013-02-14 22:05:00,34.4,23.1,29.90,NNW,333,12.0,12.0,63,0.00,,,0.00,Wunderground v.1.15,2013-02-15 04:05:00,
2013-02-14 22:10:00,34.4,23.5,29.90,NW,322,11.0,13.0,64,0.00,,,0.00,Wunderground v.1.15,2013-02-15 04:10:00,
2013-02-14 22:15:00,34.4,23.1,29.90,NW,316,10.0,13.0,63,0.00,,,0.00,Wunderground v.1.15,2013-02-15 04:15:00,
2013-02-14 22:20:00,34.4,23.1,29.90,WNW,294,10.0,12.0,63,0.00,,,0.00,Wunderground v.1.15,2013-02-15 04:20:00,
2013-02-14 22:25:00,34.4,23.1,29.90,NNW,346,9.0,12.0,63,0.00,,,0.00,Wunderground v.1.15,2013-02-15 04:25:00,
2013-02-14 22:30:00,34.4,23.1,29.90,NW,312,8.0,8.0,63,0.00,,,0.00,Wunderground v.1.15,2013-02-15 04:30:00,
2013-02-14 22:35:00,34.4,23.1,29.90,NNW,338,8.0,10.0,63,0.00,,,0.00,Wunderground v.1.15,2013-02-15 04:35:00,
2013-02-14 22:44:00,34.4,23.1,29.90,NNW,329,10.0,11.0,63,0.00,,,0.00,Wunderground v.1.15,2013-02-15 04:44:00,
2013-02-14 22:49:00,34.4,23.1,29.90,NNW,343,11.0,11.0,63,0.00,,,0.00,Wunderground v.1.15,2013-02-15 04:49:00,
2013-02-14 22:54:00,34.4,23.1,29.90,NNW,338,12.0,12.0,63,0.00,,,0.00,Wunderground v.1.15,2013-02-15 04:54:00,
2013-02-14 22:59:00,34.4,23.1,29.90,NW,317,12.0,12.0,63,0.00,,,0.00,Wunderground v.1.15,2013-02-15 04:59:00,
2013-02-14 23:05:00,34.4,23.5,29.90,NNW,331,11.0,12.0,64,0.00,,,0.00,Wunderground v.1.15,2013-02-15 05:05:00,
2013-02-14 23:10:00,34.4,23.5,29.90,NNW,346,11.0,12.0,64,0.00,,,0.00,Wunderground v.1.15,2013-02-15 05:10:00,
2013-02-14 23:15:00,34.3,23.4,29.90,NNW,341,10.0,12.0,64,0.00,,,0.00,Wunderground v.1.15,2013-02-15 05:15:00,
2013-02-14 23:20:00,34.3,23.0,29.90,NNW,342,11.0,11.0,63,0.00,,,0.00,Wunderground v.1.15,2013-02-15 05:20:00,
2013-02-14 23:25:00,34.3,23.7,29.90,NNW,340,11.0,11.0,65,0.00,,,0.00,Wunderground v.1.15,2013-02-15 05:25:00,
2013-02-14 23:30:00,34.3,23.4,29.90,NNW,329,11.0,14.0,64,0.00,,,0.00,Wunderground v.1.15,2013-02-15 05:30:00,
2013-02-14 23:35:00,34.3,23.4,29.90,NW,325,11.0,14.0,64,0.00,,,0.00,Wunderground v.1.15,2013-02-15 05:35:00,
2013-02-14 23:40:00,34.1,23.9,29.90,NW,311,10.0,10.0,66,0.00,,,0.00,Wunderground v.1.15,2013-02-15 05:40:00,
2013-02-14 23:49:00,34.1,23.9,29.90,NNW,327,9.0,10.0,66,0.00,,,0.00,Wunderground v.1.15,2013-02-15 05:49:00,
2013-02-14 23:54:00,34.1,23.9,29.90,NNW,333,10.0,11.0,66,0.00,,,0.00,Wunderground v.1.15,2013-02-15 05:54:00,
2013-02-14 23:59:00,34.0,24.2,29.90,WNW,293,10.0,10.0,67,0.00,,,0.00,Wunderground v.1.15,2013-02-15 05:59:00,